EDW267J LPMA-LSZH

Flight info

Callsign EDW267J
Flight time N/A
Altitude 34000
Route DEGUN DCT NASAS DCT FTM DCT TOSDI DCT ZMR N976 DGO T429 LPA/N0451F360 T429 TOPTU DCT TOU DCT GAI DCT MEN DCT NINUN DCT LATAM DCT ETREK DCT LTP/N0453F340 DCT SOPLO DCT OMASI DCT KINNI DCT LAMUR DCT GUDAX Z57 DOPIL
Aircraft A320/M-SDE3FGHIRWY/LB1

Departure

Time N/A
Airport Cristiano Ronaldo International Airport (LPMA)

Arrival

Time 2026-04-30 20:23
Airport Zürich Airport (LSZH)
Time Latitude Longitude Altitude Speed Heading
2026-04-30 17:48 37.31791 -11.70710 36144 ft 484 kts 41°
2026-04-30 17:50 37.50447 -11.46351 36142 ft 482 kts 41°
2026-04-30 17:52 37.64340 -11.28073 36139 ft 481 kts 41°
2026-04-30 17:54 37.85044 -11.00648 36138 ft 479 kts 41°
2026-04-30 17:56 38.03379 -10.76144 36137 ft 478 kts 41°
2026-04-30 17:58 38.17086 -10.57730 36136 ft 478 kts 41°
2026-04-30 18:00 38.35294 -10.33065 36134 ft 477 kts 42°
2026-04-30 18:01 38.46592 -10.17638 36123 ft 477 kts 42°
2026-04-30 18:02 38.60163 -9.98979 36126 ft 478 kts 45°
2026-04-30 18:04 38.73209 -9.79702 36103 ft 479 kts 47°
2026-04-30 18:06 38.90742 -9.53877 36110 ft 481 kts 49°
2026-04-30 18:08 39.06040 -9.31127 36118 ft 481 kts 50°
2026-04-30 18:10 39.23476 -9.05000 36109 ft 480 kts 50°
2026-04-30 18:11 39.38628 -8.82114 36116 ft 480 kts 51°
2026-04-30 18:13 39.49447 -8.65695 36118 ft 479 kts 51°
2026-04-30 18:14 39.60223 -8.49216 36116 ft 479 kts 51°
2026-04-30 18:15 39.73107 -8.29417 36111 ft 478 kts 51°
2026-04-30 18:16 39.81664 -8.16195 36107 ft 478 kts 51°
2026-04-30 18:17 39.85906 -8.09619 36107 ft 477 kts 51°
2026-04-30 18:18 39.92298 -7.99686 36099 ft 477 kts 51°
2026-04-30 18:18 39.96558 -7.93052 36098 ft 477 kts 51°
2026-04-30 18:19 40.00810 -7.86418 36100 ft 477 kts 51°
2026-04-30 18:19 40.05048 -7.79768 36098 ft 476 kts 51°
2026-04-30 18:20 40.09292 -7.73123 36100 ft 476 kts 51°
2026-04-30 18:20 40.12817 -7.67596 36103 ft 476 kts 52°
2026-04-30 18:21 40.17054 -7.60936 36102 ft 476 kts 52°
2026-04-30 18:21 40.21277 -7.54274 36104 ft 476 kts 52°
2026-04-30 18:22 40.25524 -7.47554 36100 ft 476 kts 52°
2026-04-30 18:22 40.31813 -7.37585 36101 ft 475 kts 52°
2026-04-30 18:23 40.36018 -7.30901 36100 ft 475 kts 52°
2026-04-30 18:23 40.40217 -7.24206 36102 ft 475 kts 52°
2026-04-30 18:24 40.46504 -7.14156 36100 ft 475 kts 52°
2026-04-30 18:25 40.50698 -7.07446 36098 ft 475 kts 52°
2026-04-30 18:25 40.56965 -6.97380 36095 ft 474 kts 52°
2026-04-30 18:26 40.63228 -6.87298 36094 ft 474 kts 52°
2026-04-30 18:27 40.69445 -6.77261 36090 ft 473 kts 52°
2026-04-30 18:28 40.75671 -6.67153 36095 ft 474 kts 52°
2026-04-30 18:28 40.81891 -6.57021 36098 ft 474 kts 52°
2026-04-30 18:29 40.90177 -6.43487 36100 ft 473 kts 52°
2026-04-30 18:30 40.98452 -6.29940 36099 ft 473 kts 50°
2026-04-30 18:31 41.05683 -6.21019 36100 ft 475 kts 43°
2026-04-30 18:32 41.13044 -6.12237 36103 ft 475 kts 43°
2026-04-30 18:33 41.20399 -6.03422 36105 ft 475 kts 43°
2026-04-30 18:33 41.27746 -5.94572 36109 ft 475 kts 43°
2026-04-30 18:34 41.35093 -5.85720 36110 ft 475 kts 43°
2026-04-30 18:35 41.39894 -5.79703 36107 ft 473 kts 52°
2026-04-30 18:35 41.41672 -5.76044 36101 ft 468 kts 68°
2026-04-30 18:35 41.42842 -5.72082 36103 ft 466 kts 72°
2026-04-30 18:36 41.46204 -5.59893 36095 ft 468 kts 72°
2026-04-30 18:37 41.49571 -5.47667 36097 ft 468 kts 72°
2026-04-30 18:37 41.51803 -5.39500 36099 ft 469 kts 72°
2026-04-30 18:38 41.54034 -5.31322 36108 ft 469 kts 72°
2026-04-30 18:38 41.56274 -5.23134 36117 ft 469 kts 72°
2026-04-30 18:39 41.58497 -5.14943 36123 ft 469 kts 72°
2026-04-30 18:39 41.60710 -5.06747 36130 ft 469 kts 72°
2026-04-30 18:40 41.62925 -4.98545 36135 ft 469 kts 72°
2026-04-30 18:40 41.65133 -4.90332 36140 ft 469 kts 72°
2026-04-30 18:41 41.67330 -4.82116 36140 ft 469 kts 72°
2026-04-30 18:41 41.69521 -4.73885 36142 ft 469 kts 72°
2026-04-30 18:42 41.71710 -4.65661 36140 ft 469 kts 72°
2026-04-30 18:42 41.74988 -4.53313 36136 ft 469 kts 72°
2026-04-30 18:45 41.86857 -4.07981 36128 ft 469 kts 72°
2026-04-30 18:46 41.88997 -3.99712 36126 ft 469 kts 72°
2026-04-30 18:46 41.91132 -3.91429 36127 ft 469 kts 72°
2026-04-30 18:47 41.93262 -3.83144 36121 ft 470 kts 72°
2026-04-30 18:47 41.95396 -3.74854 36122 ft 470 kts 72°
2026-04-30 18:48 41.97514 -3.66561 36118 ft 469 kts 72°
2026-04-30 18:48 41.99613 -3.58305 36118 ft 470 kts 72°
2026-04-30 18:49 42.01722 -3.49987 36113 ft 470 kts 72°
2026-04-30 18:49 42.03829 -3.41658 36117 ft 471 kts 72°
2026-04-30 18:50 42.05931 -3.33314 36113 ft 471 kts 72°
2026-04-30 18:50 42.08026 -3.24957 36113 ft 471 kts 72°
2026-04-30 18:51 42.10116 -3.16589 36112 ft 471 kts 72°
2026-04-30 18:51 42.12206 -3.08220 36107 ft 472 kts 72°
2026-04-30 18:52 42.14286 -2.99851 36111 ft 472 kts 72°
2026-04-30 18:52 42.16362 -2.91460 36112 ft 472 kts 72°
2026-04-30 18:53 42.18430 -2.83069 36101 ft 472 kts 72°
2026-04-30 18:53 42.20492 -2.74671 36105 ft 472 kts 72°
2026-04-30 18:54 42.22548 -2.66260 36104 ft 473 kts 72°
2026-04-30 18:54 42.24605 -2.57833 36092 ft 473 kts 72°
2026-04-30 18:55 42.26662 -2.49382 36092 ft 474 kts 72°
2026-04-30 18:55 42.29730 -2.36682 36088 ft 475 kts 72°
2026-04-30 18:56 42.32789 -2.23950 36079 ft 475 kts 72°
2026-04-30 18:57 42.35842 -2.11193 36083 ft 476 kts 72°
2026-04-30 18:57 42.37856 -2.02729 36086 ft 476 kts 72°
2026-04-30 18:58 42.40887 -1.89928 36090 ft 477 kts 72°
2026-04-30 18:59 42.43912 -1.77097 36086 ft 477 kts 72°
2026-04-30 19:00 42.47918 -1.59948 36083 ft 478 kts 72°
2026-04-30 19:01 42.51912 -1.42731 36088 ft 479 kts 72°
2026-04-30 19:02 42.54893 -1.29800 36087 ft 480 kts 72°
2026-04-30 19:03 42.58876 -1.12456 36097 ft 482 kts 72°
2026-04-30 19:04 42.62822 -0.95112 36107 ft 483 kts 72°
2026-04-30 19:05 42.66754 -0.77659 36118 ft 484 kts 72°
2026-04-30 19:06 42.70671 -0.60132 36132 ft 485 kts 72°
2026-04-30 19:06 42.73601 -0.46952 36143 ft 486 kts 72°
2026-04-30 19:07 42.76521 -0.33746 36146 ft 486 kts 72°
2026-04-30 19:08 42.81392 -0.16697 36146 ft 482 kts 53°
2026-04-30 19:09 42.87698 -0.06055 36154 ft 481 kts 48°
2026-04-30 19:09 42.91931 0.01018 36164 ft 482 kts 48°
2026-04-30 19:10 42.99687 0.14020 36164 ft 482 kts 48°
2026-04-30 19:11 43.06045 0.24690 36163 ft 482 kts 48°
2026-04-30 19:12 43.10274 0.31816 36163 ft 483 kts 48°
2026-04-30 19:12 43.14501 0.38955 36160 ft 483 kts 48°
2026-04-30 19:13 43.22950 0.53269 36155 ft 483 kts 48°
2026-04-30 19:14 43.27142 0.60394 36150 ft 483 kts 48°
2026-04-30 19:14 43.31356 0.67586 36148 ft 483 kts 48°
2026-04-30 19:15 43.35571 0.74787 36150 ft 484 kts 48°
2026-04-30 19:15 43.41890 0.85607 36146 ft 484 kts 48°
2026-04-30 19:16 43.45812 0.92359 36148 ft 484 kts 48°
2026-04-30 19:17 43.52112 1.03238 36152 ft 484 kts 48°
2026-04-30 19:17 43.58384 1.14098 36162 ft 484 kts 48°
2026-04-30 19:18 43.64669 1.25012 36164 ft 484 kts 48°
2026-04-30 19:19 43.68856 1.32324 36166 ft 485 kts 49°
2026-04-30 19:19 43.74889 1.43546 36172 ft 485 kts 51°
2026-04-30 19:20 43.78847 1.51127 36174 ft 485 kts 51°
2026-04-30 19:21 43.84829 1.62415 36179 ft 485 kts 51°
2026-04-30 19:22 43.92788 1.77411 36186 ft 484 kts 51°
2026-04-30 19:23 44.04379 2.00360 36201 ft 483 kts 53°
2026-04-30 19:24 44.10076 2.11891 36199 ft 482 kts 53°
2026-04-30 19:25 44.19556 2.31073 36210 ft 480 kts 53°
2026-04-30 19:26 44.27098 2.46444 36212 ft 480 kts 53°
2026-04-30 19:27 44.32713 2.57931 36212 ft 479 kts 53°
2026-04-30 19:28 44.38325 2.69496 36218 ft 479 kts 53°
2026-04-30 19:29 44.45791 2.84885 36227 ft 477 kts 54°
2026-04-30 19:30 44.53200 3.00288 36235 ft 476 kts 54°
2026-04-30 19:31 44.60578 3.15677 36237 ft 475 kts 55°
2026-04-30 19:31 44.65610 3.27671 36237 ft 475 kts 60°
2026-04-30 19:32 44.68741 3.35849 36236 ft 475 kts 60°
2026-04-30 19:32 44.71926 3.43972 36235 ft 474 kts 59°
2026-04-30 19:33 44.75133 3.51996 36236 ft 473 kts 59°
2026-04-30 19:33 44.78357 3.60061 36236 ft 472 kts 59°
2026-04-30 19:34 44.81565 3.68134 36238 ft 472 kts 59°
2026-04-30 19:35 44.86348 3.80250 36243 ft 471 kts 59°
2026-04-30 19:35 44.89524 3.88329 36244 ft 471 kts 60°
2026-04-30 19:36 44.92691 3.96402 36246 ft 470 kts 60°
2026-04-30 19:36 44.97402 4.08493 36245 ft 468 kts 60°
2026-04-30 19:37 45.00532 4.16536 36243 ft 467 kts 60°
2026-04-30 19:37 45.03631 4.24516 36241 ft 466 kts 60°
2026-04-30 19:38 45.06747 4.32550 36239 ft 465 kts 60°
2026-04-30 19:38 45.09839 4.40567 36239 ft 464 kts 60°
2026-04-30 19:39 45.12946 4.48637 36231 ft 463 kts 61°
2026-04-30 19:39 45.15991 4.56586 36230 ft 462 kts 61°
2026-04-30 19:40 45.19048 4.64594 36221 ft 462 kts 61°
2026-04-30 19:40 45.22106 4.72603 36218 ft 461 kts 61°
2026-04-30 19:41 45.25154 4.80603 36213 ft 461 kts 62°
2026-04-30 19:41 45.28187 4.88615 36208 ft 461 kts 62°
2026-04-30 19:42 45.31209 4.96639 36208 ft 461 kts 62°
2026-04-30 19:42 45.34238 5.04681 36198 ft 462 kts 62°
2026-04-30 19:43 45.37272 5.12731 36212 ft 462 kts 62°
2026-04-30 19:44 45.41817 5.24838 36225 ft 462 kts 62°
2026-04-30 19:44 45.44826 5.32915 36231 ft 461 kts 62°
2026-04-30 19:45 45.47845 5.40903 36229 ft 460 kts 57°
2026-04-30 19:45 45.51953 5.47808 36224 ft 456 kts 40°
2026-04-30 19:46 45.56603 5.53709 36217 ft 456 kts 40°
2026-04-30 19:46 45.61326 5.59736 36210 ft 455 kts 41°
2026-04-30 19:47 45.66028 5.65762 36212 ft 454 kts 41°
2026-04-30 19:47 45.70719 5.71794 36213 ft 453 kts 41°
2026-04-30 19:48 45.75401 5.77818 36211 ft 452 kts 41°
2026-04-30 19:48 45.80083 5.83823 36211 ft 451 kts 41°
2026-04-30 19:49 45.84751 5.89825 36230 ft 450 kts 41°
2026-04-30 19:49 45.91719 5.98838 36238 ft 449 kts 41°
2026-04-30 19:50 45.96356 6.04839 36236 ft 448 kts 41°
2026-04-30 19:50 46.00981 6.10848 36237 ft 448 kts 41°
2026-04-30 19:51 46.05563 6.16826 36236 ft 447 kts 42°
2026-04-30 19:51 46.09891 6.23219 36229 ft 446 kts 53°
2026-04-30 19:52 46.13466 6.30527 36235 ft 446 kts 54°
2026-04-30 19:52 46.17034 6.37830 36235 ft 445 kts 54°
2026-04-30 19:53 46.20590 6.45123 36234 ft 444 kts 54°
2026-04-30 19:53 46.24118 6.52387 36234 ft 443 kts 54°
2026-04-30 19:54 46.27645 6.59678 36236 ft 442 kts 54°
2026-04-30 19:54 46.31154 6.66957 36237 ft 441 kts 54°
2026-04-30 19:55 46.34663 6.74246 36240 ft 440 kts 54°
2026-04-30 19:55 46.38158 6.81500 36243 ft 439 kts 54°
2026-04-30 19:56 46.41637 6.88757 36247 ft 438 kts 54°
2026-04-30 19:56 46.45096 6.96002 36245 ft 437 kts 54°
2026-04-30 19:57 46.48547 7.03243 36245 ft 436 kts 54°
2026-04-30 19:57 46.51985 7.10484 36249 ft 435 kts 54°
2026-04-30 19:58 46.55409 7.17716 36250 ft 434 kts 54°
2026-04-30 19:58 46.59144 7.24565 36231 ft 432 kts 42°
2026-04-30 19:59 46.63672 7.30281 36244 ft 431 kts 40°
2026-04-30 20:00 46.70457 7.38849 36240 ft 431 kts 40°
2026-04-30 20:00 46.74977 7.44591 36228 ft 430 kts 40°
2026-04-30 20:01 46.80565 7.52835 36240 ft 431 kts 50°
2026-04-30 20:01 46.84298 7.59681 36232 ft 431 kts 50°
2026-04-30 20:02 46.89561 7.69343 36242 ft 430 kts 50°
2026-04-30 20:03 46.95184 7.79729 36247 ft 429 kts 50°
2026-04-30 20:03 46.98886 7.86578 36262 ft 429 kts 50°
2026-04-30 20:04 47.02511 7.93289 36254 ft 428 kts 50°
2026-04-30 20:05 47.08196 8.03352 36097 ft 425 kts 43°
2026-04-30 20:05 47.09885 8.05759 35237 ft 429 kts 43°
2026-04-30 20:05 47.12802 8.09854 33965 ft 432 kts 43°
2026-04-30 20:07 47.13503 8.10834 33626 ft 432 kts 43°
2026-04-30 20:07 47.15728 8.13612 31922 ft 440 kts 39°
2026-04-30 20:07 47.20409 8.19205 29912 ft 435 kts 34°
2026-04-30 20:08 47.23138 8.20997 28949 ft 435 kts 15°
2026-04-30 20:08 47.26173 8.21232 27794 ft 446 kts 354°
2026-04-30 20:08 47.29181 8.19896 26646 ft 456 kts 339°
2026-04-30 20:08 47.31998 8.17680 25602 ft 461 kts 332°
2026-04-30 20:09 47.34780 8.15412 24788 ft 456 kts 335°
2026-04-30 20:09 47.37613 8.13339 23929 ft 453 kts 337°
2026-04-30 20:09 47.43287 8.09428 22216 ft 446 kts 337°
2026-04-30 20:10 47.48828 8.05457 20693 ft 439 kts 338°
2026-04-30 20:10 47.51701 8.04101 19984 ft 430 kts 355°
2026-04-30 20:10 47.54632 8.04205 19426 ft 417 kts 14°
2026-04-30 20:11 47.59425 8.08348 18311 ft 398 kts 51°
2026-04-30 20:11 47.60854 8.11803 17799 ft 391 kts 68°
2026-04-30 20:11 47.61494 8.15674 17302 ft 386 kts 84°
2026-04-30 20:12 47.60339 8.23268 16364 ft 383 kts 118°
2026-04-30 20:12 47.58698 8.26281 15775 ft 387 kts 136°
2026-04-30 20:12 47.56444 8.28474 15185 ft 390 kts 152°
2026-04-30 20:13 47.53989 8.30176 14598 ft 389 kts 153°
2026-04-30 20:13 47.51539 8.31863 14056 ft 387 kts 153°
2026-04-30 20:13 47.49102 8.33536 13495 ft 384 kts 153°
2026-04-30 20:13 47.46733 8.35164 12944 ft 380 kts 153°
2026-04-30 20:14 47.44316 8.36836 12377 ft 376 kts 153°
2026-04-30 20:14 47.41945 8.38483 11770 ft 374 kts 153°
2026-04-30 20:14 47.39648 8.40078 11342 ft 368 kts 153°
2026-04-30 20:14 47.37340 8.41676 11216 ft 352 kts 153°
2026-04-30 20:15 47.35171 8.43173 11089 ft 338 kts 153°
2026-04-30 20:15 47.33080 8.44615 10964 ft 325 kts 153°
2026-04-30 20:15 47.31069 8.46000 10844 ft 313 kts 153°
2026-04-30 20:15 47.29131 8.47331 10715 ft 302 kts 153°
2026-04-30 20:16 47.27251 8.48620 10501 ft 295 kts 154°
2026-04-30 20:16 47.25407 8.49888 10433 ft 292 kts 154°
2026-04-30 20:16 47.23571 8.51150 10323 ft 288 kts 154°
2026-04-30 20:16 47.21781 8.52380 10057 ft 282 kts 154°
2026-04-30 20:17 47.20072 8.53718 9572 ft 284 kts 140°
2026-04-30 20:17 47.18852 8.56003 9039 ft 285 kts 111°
2026-04-30 20:17 47.18601 8.58892 8459 ft 288 kts 80°
2026-04-30 20:17 47.19345 8.61603 8030 ft 288 kts 58°
2026-04-30 20:18 47.20337 8.64157 7562 ft 288 kts 63°
2026-04-30 20:18 47.21184 8.66789 7142 ft 288 kts 64°
2026-04-30 20:18 47.22449 8.69083 6687 ft 289 kts 34°
2026-04-30 20:18 47.24306 8.70012 6207 ft 290 kts
2026-04-30 20:19 47.26263 8.69446 5801 ft 288 kts 339°
2026-04-30 20:19 47.28046 8.68144 5385 ft 286 kts 329°
2026-04-30 20:19 47.29733 8.66640 5040 ft 281 kts 329°
2026-04-30 20:19 47.31372 8.65188 4618 ft 266 kts 331°
2026-04-30 20:20 47.32935 8.63899 4241 ft 248 kts 334°
2026-04-30 20:20 47.34398 8.62774 3903 ft 229 kts 336°
2026-04-30 20:20 47.35770 8.61770 3584 ft 212 kts 338°
2026-04-30 20:20 47.37059 8.60852 3296 ft 198 kts 338°
2026-04-30 20:21 47.38278 8.59989 3020 ft 190 kts 337°
2026-04-30 20:21 47.39454 8.59148 2641 ft 179 kts 338°
2026-04-30 20:21 47.40486 8.58427 2275 ft 167 kts 340°
2026-04-30 20:21 47.41489 8.57780 2132 ft 152 kts 339°
2026-04-30 20:22 47.42410 8.57128 1964 ft 153 kts 338°
2026-04-30 20:22 47.43342 8.56504 1765 ft 153 kts 340°
2026-04-30 20:22 47.44294 8.55837 1555 ft 143 kts 337°
2026-04-30 20:22 47.45163 8.55241 1420 ft 131 kts 337°
2026-04-30 20:23 47.45885 8.54762 1386 ft 91 kts 334°
2026-04-30 20:23 47.46288 8.54479 1386 ft 37 kts 334°
2026-04-30 20:23 47.46430 8.54435 1384 ft 16 kts 34°
2026-04-30 20:23 47.46479 8.54575 1384 ft 13 kts 76°
2026-04-30 20:24 47.46445 8.54650 1384 ft 9 kts 153°
2026-04-30 20:24 47.46391 8.54686 1383 ft 9 kts 155°
2026-04-30 20:24 47.46342 8.54720 1383 ft 8 kts 154°
2026-04-30 20:24 47.46296 8.54750 1387 ft 11 kts 156°
2026-04-30 20:25 47.46130 8.54865 1387 ft 11 kts 155°
2026-04-30 20:25 47.46066 8.54908 1388 ft 10 kts 155°
2026-04-30 20:26 47.45959 8.54981 1394 ft 8 kts 154°
2026-04-30 20:26 47.45899 8.55024 1396 ft 2 kts 154°
2026-04-30 20:26 47.45897 8.55026 1396 ft 0 kts 154°
2026-04-30 20:27 47.45870 8.55045 1399 ft 14 kts 154°
2026-04-30 20:27 47.45698 8.55161 1401 ft 11 kts 155°
2026-04-30 20:28 47.45591 8.55235 1400 ft 8 kts 155°
2026-04-30 20:28 47.45512 8.55290 1403 ft 8 kts 154°
2026-04-30 20:29 47.45312 8.55464 1406 ft 16 kts 128°
2026-04-30 20:30 47.45216 8.55813 1412 ft 6 kts 190°
2026-04-30 20:30 47.45170 8.55805 1407 ft 0 kts 186°